Weather History for FBFT - April, 2014

Change the Weather History Date:

Sunday, April 20, 2014

  Actual Average Record
Temperature  
Mean Temperature 65 °F -  
Max Temperature 82 °F 78 °F 95 °F (2005)
Min Temperature 48 °F 50 °F 46 °F (2009)
Growing Degree Days 15 (Base 50)    
Moisture  
Dew Point 50 °F    
Average Humidity 65    
Maximum Humidity 94    
Minimum Humidity 30    
Precipitation  
Precipitation 0.00 in - - ()
Sea Level Pressure  
Sea Level Pressure 30.18 in    
Wind  
Wind Speed 4 mph ()    
Max Wind Speed 13 mph    
Max Gust Speed -    
Visibility 6.0 miles    
Events      
Averages and records for this station are not official NWS values.
T = Trace of Precipitation, MM = Missing Value Source: Averaged Metar Reports

Daily Weather History Graph

Daily Weather History Graph

Search for Another Location

Airport or City:

Trip Planner

Search our weather history database for the weather conditions in past years. The results will help you decide how hot, cold, wet, or windy it might be!

Date:

Astronomy

Apr. 20, 2014 Rise Set
Actual Time 6:23 AM CAT 5:54 PM CAT
Civil Twilight 6:00 AM CAT 6:16 PM CAT
Nautical Twilight 5:34 AM CAT 6:42 PM CAT
Astronomical Twilight 5:08 AM CAT 7:08 PM CAT
Moon 10:33 PM CAT (4/20) 11:04 AM CAT (4/20)
Length of Visible Light 12h 16m
Length of Day
11h 30m
Waning Gibbous, 71% of the Moon is Illuminated
Apr 20
Waning Gibbous
Apr 22
Last Quarter
Apr 29
New
May 7
First Quarter
May 14
Full

Hourly Weather History & Observations

Time (CAT) Temp. Heat Index Dew Point Humidity Pressure Visibility Wind Dir Wind Speed Gust Speed Precip Events Conditions
12:00 AM 55.4 °F - 50.0 °F 82% 30.24 in - SSE 3.5 mph - N/A   Clear
1:00 AM 55.4 °F - 50.0 °F 82% 30.24 in - SE 5.8 mph - N/A   Clear
2:00 AM 55 °F - 49 °F 74%  in 6 mi SE 1.2 mph - -  
2:00 AM 55.4 °F - 50.0 °F 82% 30.21 in - SE 3.5 mph - N/A   Clear
3:00 AM 51.8 °F - 50.0 °F 94% 30.21 in - Variable 1.2 mph - N/A   Clear
4:00 AM 51.8 °F - 48.2 °F 88% 30.21 in - Variable 2.3 mph - N/A   Clear
6:00 AM 48.2 °F - 46.4 °F 93% 30.21 in - Variable 1.2 mph - N/A   Clear
8:00 AM 57.2 °F - 51.8 °F 82% 30.24 in - Variable 2.3 mph - N/A   Clear
9:00 AM 71.6 °F - 55.4 °F 57% 30.27 in - ENE 5.8 mph - N/A   Clear
11:00 AM 80.6 °F - 50.0 °F 34% 30.24 in - ENE 12.7 mph - N/A   Clear
2:00 PM 82.4 °F - 50.0 °F 32% 30.15 in - ESE 12.7 mph - N/A   Clear
3:00 PM 82.4 °F - 48.2 °F 30% 30.15 in - ESE 12.7 mph - N/A   Clear
4:00 PM 82.4 °F - 48.2 °F 30% 30.12 in - East 10.4 mph - N/A   Clear
5:00 PM 80.6 °F 80.3 °F 53.6 °F 39% 30.12 in - East 6.9 mph - N/A   Clear
6:00 PM 75.2 °F - 48.2 °F 38% 30.15 in - ESE 5.8 mph - N/A   Clear
7:00 PM 68.0 °F - 53.6 °F 60% 30.15 in - SE 5.8 mph - N/A   Clear
8:00 PM 62.6 °F - 51.8 °F 68% 30.15 in - SE 6.9 mph - N/A   Clear
9:00 PM 60.8 °F - 51.8 °F 72% 30.15 in - SE 4.6 mph - N/A   Clear
10:00 PM 60.8 °F - 50.0 °F 68% 30.15 in - Variable 2.3 mph - N/A   Clear
11:00 PM 53.6 °F - 50.0 °F 88% 30.15 in - ESE 6.9 mph - N/A   Clear